Regional Weather Roundup
Issued by NWS Wakefield, VA

Home | Current Version | Previous Version | Text Only | Print | Product List | Glossary Off
Versions: 1 2 3 4 5 6 7 8 9 10 11 12 13 14 15 16 17 18 19 20 21 22 23 24 25 26 27
000 ASUS41 KAKQ 230615 RWRAKQ REGIONAL WEATHER ROUNDUP NATIONAL WEATHER SERVICE WAKEFIELD VA 200 AM EDT FRI JUN 23 2017 Note: "fair" indicates few or no clouds below 12,000 feet with no significant weather and/or obstructions to visibility. * = Denotes station may not report precipitation (e.g., rain,snow,etc.), thunder or fog. VAZ042-051-052>054-056-230700- NORTHERN VIRGINIA CITY SKY/WX TMP DP RH WIND PRES REMARKS WASH NATIONAL CLOUDY 79 72 79 SW8 29.92F DULLES CLOUDY 75 70 84 S6 29.91F FORT BELVOIR CLOUDY 78 70 77 S3 29.91F QUANTICO MOCLDY 79 73 82 SW8 29.93F FREDERICKSBRG* MOCLDY 76 71 84 SW7 29.93F STAFFORD* CLOUDY 76 73 92 SW5 29.97F WARRENTON MOCLDY 76 69 77 S5 29.92F CULPEPER* CLOUDY 75 72 89 SW3 29.94F MANASSAS* NOT AVBL LEESBURG* CLOUDY 75 73 94 CALM 29.92F WINCHESTER CLOUDY 73 68 83 SW5 29.92F FRONT ROYAL* CLOUDY 77 68 73 SW7 29.93S LURAY* CLOUDY 75 68 78 SW6 29.96F $$ VAZ048-049-060>072-079>083-230700- CENTRAL AND SOUTH CENTRAL VIRGINIA CITY SKY/WX TMP DP RH WIND PRES REMARKS RICHMOND CLOUDY 78 70 76 SW10 29.97F CHESTERFIELD* NOT AVBL PETERSBURG* CLOUDY 73 69 86 CALM 30.00S HANOVER CLOUDY 77 68 73 SW8 29.97F TAPPAHANNOCK* CLOUDY 75 69 81 S5 29.96F QUINTON* FAIR 76 73 91 CALM 29.96F CHARLOTTSVILLE LGT RAIN 75 70 84 VRB3 29.97S GORDONSVILLE* CLOUDY 74 72 92 SW7 29.96S ORANGE* CLOUDY 73 70 88 SW8 29.95S LOUISA* CLOUDY 79 73 83 SW6 29.96S BUMPASS* FAIR 74 72 91 SW8 29.97S FARMVILLE* MOCLDY 74 70 89 SW3 29.99F CREWE* FAIR 73 69 87 CALM 30.00F FORT PICKETT* FAIR N/A N/A N/A SW5 30.01F CHASE CITY* CLOUDY 73 73 99 CALM 30.03S CLARKSVILLE* MOCLDY 72 72 100 CALM 30.02F SOUTH HILL* CLOUDY 73 73 100 S5 30.08F LAWRENCEVILLE* MOCLDY 73 72 96 SW3 30.02F EMPORIA* MOCLDY 73 70 88 S5 30.03F $$ VAZ088>098-230700- SOUTHEAST VIRGINIA CITY SKY/WX TMP DP RH WIND PRES REMARKS NORFOLK PTCLDY 79 73 82 SW10 29.98F VIRGINIA BEACH CLOUDY 77 70 79 SW12 29.98F NORFOLK NAVAL CLOUDY 79 72 79 SW10 30.00S WEST POINT* CLOUDY 76 70 80 CALM 29.98F SALUDA* FAIR 77 72 83 W3 29.96F NEWPORT NEWS MOCLDY 77 71 82 SW9 29.98F LANGLEY AFB PTCLDY 77 72 84 SW10 29.97F FORT EUSTIS CLOUDY 77 72 83 SW5 29.96F WILLIAMSBURG* MOCLDY 79 72 78 CALM 29.99F HR EXEC AP* FAIR 75 70 83 SW7 29.98F FRANKLIN* MOCLDY 75 70 83 SW5 30.01F US460-WAKEFLD CLOUDY 75 72 90 SW8 29.99F $$ VAZ020-022-025-037-045-230700- WEST CENTRAL AND SOUTHWEST VIRGINIA CITY SKY/WX TMP DP RH WIND PRES REMARKS STAUNTON* RAIN 71 68 91 S7 30.03F WAYNESBORO* CLOUDY 70 68 94 SW6 30.03F HOT SPRINGS VA LGT RAIN 63 59 88 SW10 30.13F LYNCHBURG CLOUDY 72 70 93 CALM 30.02F DANVILLE LGT RAIN 72 72 100 CALM 30.03F SOUTH BOSTON* CLOUDY 73 72 95 S3 30.02F MARTINSVILLE DRIZZLE 71 69 96 CALM 30.05F ROANOKE CLOUDY 72 71 97 CALM 30.05F BLACKSBURG CLOUDY 69 67 92 CALM 30.09F DUBLIN* CLOUDY 71 65 82 S3 30.07F MARION* RAIN 69 65 88 CALM 30.10F HILLSVILLE* CLOUDY 67 63 86 CALM 30.09F RICHLANDS* CLOUDY 71 65 82 SW7 30.07S WISE* LGT RAIN 70 70 100 S10 30.06F ABINGDON* LGT RAIN 71 70 96 CALM 30.06F $$ MDZ021>025-VAZ099-100-230700- SOUTHERN MARYLAND AND THE DELMARVA PENINSULA CITY SKY/WX TMP DP RH WIND PRES REMARKS PATUXENT RIVER CLOUDY 78 69 73 SW10 29.93F BAY BRIDGE APT MOCLDY 79 73 83 SW6 29.91F LEONARDTOWN CLOUDY 77 68 73 SW7 29.96S DOVER MOCLDY 76 76 100 S7 29.89F GEORGETOWN CLEAR 76 73 91 SW5 29.94F EASTON MOCLDY 80 72 75 W6 29.96F CAMBRIDGE CLEAR 77 73 88 CALM 29.93F SALISBURY MOCLDY 75 74 96 S5 29.94F OCEAN CITY MOCLDY 77 74 90 W5 29.94F WALLOPS ISLAND CLOUDY 77 73 87 SW5 29.95F ACCOMACK* CLOUDY 78 74 88 SW6 29.96F $$ NCZ012>017-030>032-230700- NORTH CENTRAL AND EASTERN NORTH CAROLINA CITY SKY/WX TMP DP RH WIND PRES REMARKS ROANOKE RAPIDS FAIR 73 72 94 SW5 30.03F RALEIGH LGT RAIN 73 71 93 SW3 30.05F ELIZABETH CITY PTCLDY 78 73 84 SW9 30.02S AHOSKIE* DRIZZLE 73 71 95 CALM 30.03F EDENTON* PTCLDY 80 74 82 CALM 30.04S CURRITUCK* PTCLDY 78 72 81 SW10 30.02F KILL DEVIL HLS PTCLDY 78 72 82 CALM 30.02S MANTEO PTCLDY 77 74 90 SW7 30.04S CAPE HATTERAS PTCLDY 79 74 84 W8 30.04F TARBORO* NOT AVBL GOLDSBORO CLOUDY 75 75 100 S3 30.03F WASHINGTON CLOUDY 75 73 92 SW5 30.05S GREENVILLE PTCLDY 77 73 88 SW5 30.06S NEW BERN CLOUDY 76 76 100 SW5 30.05F WILMINGTON CLOUDY 78 77 96 S8 30.05F $$ VAZ048-230700- ELSEWHERE CITY SKY/WX TMP DP RH WIND PRES REMARKS HARRISBURG PA MOCLDY 72 70 93 CALM 29.89F BALTIMORE CLOUDY 76 74 93 SW6 29.90F ANNAPOLIS CLOUDY 79 74 84 VRB5 29.90F ANDREWS AFB CLOUDY 76 70 80 SW8 29.91F PHILADELPHIA MOCLDY 79 71 76 SW7 29.90F HENDERSON NC CLOUDY 70 68 92 SW6 30.04F GREENSBORO LGT RAIN 73 73 100 S6 30.04F ROCKY MOUNT CLOUDY 74 73 97 SW3 30.04F $$ VAZ100-230700- MARINE STATION/POSITION TIME TEMP WIND PRES WAVE SWELL AIR SEA DIR/SP/G HT/PER HT/PER (UTC) (F) (DEG/KT/KT) (MB) (FT/S) (FT/S) BRANDYWINE LGT 0536 230/ 10/ 11 1013.6F CAPE MAY NJ 0548 68 200/ 5/ 6 1012.8F LEWES DE 0548 70 230/ 5/ 9 1013.3F 15NM E FENWICK I 0550 71 69 210/ 10/ 12 1014.2F 2/ 7 2/ 7 OCEAN-CITY-INLET 0536 64 230/ 3/ 4 1014.2F WACHAPREAGUE VA 0548 82 230/ 4/ 5 1014.4F THOMAS POINT MD 0600 78 78 210/ 8/ 9 N/A GOOSES REEF MD 0600 80 80 270/ 12/ 16 1013.9 1/ 2 COVE POINT MD 0548 240/ 14/ 22 1013.8F SOLOMONS ISLAND 0548 78 230/ 13/ 16 N/A BISHOPS HEAD MD 0548 81 220/ 14/ 17 1013.8F PINEY POINT MD 0548 250/ 5/ 7 N/A POTOMAC MD 0600 78 78 250/ 10/ 14 1012.9 1/ 2 CAMBRIDGE MD 0548 81 1014.2F LEWISETTA VA 0548 80 240/ 8/ 10 1013.8F RAPPAHANNOCK LGT 0548 230/ 10/ 11 1015.3F STINGRAY PT 0550 78 270/ 10/ 12 1014.4F YORK RVR RNG VA 0548 260/ 11/ 13 1015.3F YORKTOWN VA 0548 77 240/ 9/ 12 1014.6F JAMESTOWN VA 0600 77 82 N/A 0 DOMINION TERM VA 0548 250/ 13/ 15 1015.4F KIPTOPEKE VA 0548 74 250/ 6/ 8 N/A CHES BAY BRIDGE 0548 75 250/ 15/ 18 1015.1F CAPE HENRY VA 0548 230/ 8/ 11 N/A WILLOUBY STN VA 0548 240/ 15/ 16 1014.9F S CRANEY ISL VA 0548 240/ 7/ 11 1015.3F CAPE HENRY BUOY 0530 74 N/A 2/ 9 1ST LANDING BUOY 0600 78 74 1015.3 1 CAPE CHARLES BUO 0551 69 N/A 2/ 9 64NM E OF VA BCH 0550 73 71 240/ 6/ 6 1016.3F 3/ 8 2/ 8 DUCK PIER NC 0548 64 230/ 13/ 15 1016.2F 44100 DUCK FRF 0505 69 N/A 2/ 8 OREGON INLET NC 0536 75 230/ 14/ 16 1017.0S HATTERAS NC 0548 79 240/ 7/ 10 1017.1F DIAMOND SHLS NC 0550 80 80 250/ 14/ 16 1017.2F 3/ 8 3/ 8 CAPE LOOKOUT NC 0500 79 230/ 7/ 10 1017.9F $$

USA.gov is the U.S. government's official web portal to all federal, state and local government web resources and services.